Time,TemperatureF,DewpointF,PressureIn,WindDirection,WindDirectionDegrees,WindSpeedMPH,WindSpeedGustMPH,Humidity,HourlyPrecipIn,Conditions,Clouds,dailyrainin,SoftwareType,DateUTC
2013-02-16 00:03:00,42.4,37.9,30.26,SSW,212,3.0,3.0,84,0.00,,,0.00,meteohub,2013-02-16 08:03:00,
2013-02-16 00:08:00,42.8,37.9,30.26,SSW,212,2.0,3.0,83,0.00,,,0.00,meteohub,2013-02-16 08:08:00,
2013-02-16 00:13:00,43.0,37.9,30.26,SSW,212,2.0,3.0,82,0.00,,,0.00,meteohub,2013-02-16 08:13:00,
2013-02-16 00:18:00,43.0,38.1,30.26,SSW,212,2.0,3.0,83,0.00,,,0.00,meteohub,2013-02-16 08:18:00,
2013-02-16 00:23:00,43.3,38.5,30.26,SSW,212,2.0,3.0,83,0.00,,,0.00,meteohub,2013-02-16 08:23:00,
2013-02-16 00:28:00,43.5,38.5,30.26,SSW,212,3.0,3.0,82,0.00,,,0.00,meteohub,2013-02-16 08:28:00,
2013-02-16 00:33:00,43.5,38.5,30.26,SSW,212,2.0,3.0,82,0.00,,,0.00,meteohub,2013-02-16 08:33:00,
2013-02-16 00:38:00,43.2,38.1,30.26,SSW,212,3.0,4.0,82,0.00,,,0.00,meteohub,2013-02-16 08:38:00,
2013-02-16 00:43:00,43.0,38.1,30.26,SSW,212,3.0,4.0,83,0.00,,,0.00,meteohub,2013-02-16 08:43:00,
2013-02-16 00:48:00,42.6,37.8,30.26,SSW,212,3.0,4.0,83,0.00,,,0.00,meteohub,2013-02-16 08:48:00,
2013-02-16 00:53:00,42.6,38.1,30.26,SSW,212,2.0,4.0,84,0.00,,,0.00,meteohub,2013-02-16 08:53:00,
2013-02-16 00:58:00,42.8,38.3,30.26,SSW,212,2.0,4.0,84,0.00,,,0.00,meteohub,2013-02-16 08:58:00,
2013-02-16 01:03:00,43.3,38.5,30.26,SSW,212,2.0,3.0,83,0.00,,,0.00,meteohub,2013-02-16 09:03:00,
2013-02-16 01:08:00,43.7,38.5,30.26,SSW,212,2.0,3.0,82,0.00,,,0.00,meteohub,2013-02-16 09:08:00,
2013-02-16 01:13:00,43.9,38.5,30.26,SSW,212,3.0,3.0,81,0.00,,,0.00,meteohub,2013-02-16 09:13:00,
2013-02-16 01:18:00,44.1,38.7,30.26,SSW,212,2.0,4.0,81,0.00,,,0.00,meteohub,2013-02-16 09:18:00,
2013-02-16 01:24:00,44.2,38.5,30.26,SSW,211,2.0,4.0,80,0.00,,,0.00,meteohub,2013-02-16 09:24:00,
2013-02-16 01:29:00,44.2,38.5,30.26,SSW,211,3.0,4.0,80,0.00,,,0.00,meteohub,2013-02-16 09:29:00,
2013-02-16 01:34:00,44.6,38.5,30.26,SSW,211,3.0,4.0,79,0.00,,,0.00,meteohub,2013-02-16 09:34:00,
2013-02-16 01:39:00,44.6,38.5,30.26,NE,52,3.0,4.0,79,0.00,,,0.00,meteohub,2013-02-16 09:39:00,
2013-02-16 01:44:00,44.6,38.5,30.27,NE,53,3.0,5.0,79,0.00,,,0.00,meteohub,2013-02-16 09:44:00,
2013-02-16 01:49:00,44.8,38.7,30.27,NE,52,3.0,5.0,79,0.00,,,0.00,meteohub,2013-02-16 09:49:00,
2013-02-16 01:54:00,45.0,38.5,30.26,NE,52,3.0,5.0,78,0.00,,,0.00,meteohub,2013-02-16 09:54:00,
2013-02-16 01:59:00,45.0,38.5,30.26,NE,52,3.0,5.0,78,0.00,,,0.00,meteohub,2013-02-16 09:59:00,
2013-02-16 02:04:00,45.0,38.5,30.26,NE,52,4.0,5.0,78,0.00,,,0.00,meteohub,2013-02-16 10:04:00,
2013-02-16 02:09:00,45.1,38.3,30.26,NE,52,2.0,4.0,77,0.00,,,0.00,meteohub,2013-02-16 10:09:00,
2013-02-16 02:14:00,45.7,38.5,30.26,NE,52,2.0,4.0,76,0.00,,,0.00,meteohub,2013-02-16 10:14:00,
2013-02-16 02:19:00,46.2,38.5,30.26,NE,53,2.0,4.0,74,0.00,,,0.00,meteohub,2013-02-16 10:19:00,
2013-02-16 02:24:00,46.0,38.3,30.25,NE,52,4.0,4.0,74,0.00,,,0.00,meteohub,2013-02-16 10:24:00,
2013-02-16 02:29:00,45.9,38.3,30.25,NE,52,3.0,5.0,75,0.00,,,0.00,meteohub,2013-02-16 10:29:00,
2013-02-16 02:34:00,45.9,38.3,30.25,NE,52,3.0,5.0,75,0.00,,,0.00,meteohub,2013-02-16 10:34:00,
2013-02-16 02:39:00,45.9,38.3,30.25,NE,52,2.0,5.0,75,0.00,,,0.00,meteohub,2013-02-16 10:39:00,
2013-02-16 02:44:00,45.9,38.3,30.25,ENE,57,2.0,5.0,75,0.00,,,0.00,meteohub,2013-02-16 10:44:00,
2013-02-16 02:49:00,46.0,38.5,30.25,NE,42,4.0,4.0,75,0.00,,,0.00,meteohub,2013-02-16 10:49:00,
2013-02-16 02:54:00,46.2,38.5,30.24,NE,44,4.0,5.0,74,0.00,,,0.00,meteohub,2013-02-16 10:54:00,
2013-02-16 02:59:00,46.9,38.3,30.24,NNE,32,3.0,5.0,72,0.00,,,0.00,meteohub,2013-02-16 10:59:00,
2013-02-16 03:04:00,46.8,38.3,30.24,NE,37,3.0,5.0,72,0.00,,,0.00,meteohub,2013-02-16 11:04:00,
2013-02-16 03:09:00,46.8,38.5,30.24,NNE,30,3.0,5.0,73,0.00,,,0.00,meteohub,2013-02-16 11:09:00,
2013-02-16 03:14:00,47.3,38.3,30.24,NE,51,5.0,5.0,71,0.00,,,0.00,meteohub,2013-02-16 11:14:00,
2013-02-16 03:19:00,47.8,37.8,30.24,ENE,62,4.0,6.0,68,0.00,,,0.00,meteohub,2013-02-16 11:19:00,
2013-02-16 03:24:00,48.9,38.5,30.24,ENE,60,3.0,7.0,67,0.00,,,0.00,meteohub,2013-02-16 11:24:00,
2013-02-16 03:29:00,49.5,38.1,30.24,NE,38,4.0,7.0,65,0.00,,,0.00,meteohub,2013-02-16 11:29:00,
2013-02-16 03:34:00,50.2,38.1,30.24,NE,40,3.0,7.0,63,0.00,,,0.00,meteohub,2013-02-16 11:34:00,
2013-02-16 03:39:00,51.1,38.1,30.24,ENE,65,5.0,7.0,61,0.00,,,0.00,meteohub,2013-02-16 11:39:00,
2013-02-16 03:44:00,51.6,38.1,30.24,NE,36,6.0,7.0,60,0.00,,,0.00,meteohub,2013-02-16 11:44:00,
2013-02-16 03:49:00,51.4,37.9,30.23,NNE,13,6.0,7.0,60,0.00,,,0.00,meteohub,2013-02-16 11:49:00,
2013-02-16 03:54:00,50.7,37.8,30.23,NNE,32,5.0,7.0,61,0.00,,,0.00,meteohub,2013-02-16 11:54:00,
2013-02-16 03:59:00,50.9,37.6,30.23,NNE,23,5.0,7.0,60,0.00,,,0.00,meteohub,2013-02-16 11:59:00,
2013-02-16 04:04:00,51.4,37.6,30.23,NE,38,3.0,8.0,59,0.00,,,0.00,meteohub,2013-02-16 12:04:00,
2013-02-16 04:09:00,51.6,37.4,30.23,NE,44,6.0,8.0,58,0.00,,,0.00,meteohub,2013-02-16 12:09:00,
2013-02-16 04:14:00,52.3,37.6,30.23,NNE,32,3.0,8.0,57,0.00,,,0.00,meteohub,2013-02-16 12:14:00,
2013-02-16 04:19:00,52.2,37.4,30.23,NE,34,6.0,8.0,57,0.00,,,0.00,meteohub,2013-02-16 12:19:00,
2013-02-16 04:24:00,51.6,37.4,30.23,NNE,25,4.0,7.0,58,0.00,,,0.00,meteohub,2013-02-16 12:24:00,
2013-02-16 04:29:00,51.4,37.2,30.23,NE,40,6.0,7.0,58,0.00,,,0.00,meteohub,2013-02-16 12:29:00,
2013-02-16 04:34:00,52.2,36.9,30.22,NE,50,5.0,8.0,56,0.00,,,0.00,meteohub,2013-02-16 12:34:00,
2013-02-16 04:39:00,53.1,36.9,30.23,NNE,32,4.0,8.0,54,0.00,,,0.00,meteohub,2013-02-16 12:39:00,
2013-02-16 04:44:00,52.9,36.7,30.22,ENE,60,7.0,8.0,54,0.00,,,0.00,meteohub,2013-02-16 12:44:00,
2013-02-16 04:49:00,53.1,36.9,30.22,NNE,28,3.0,7.0,54,0.00,,,0.00,meteohub,2013-02-16 12:49:00,
2013-02-16 04:54:00,53.4,36.7,30.22,NE,55,6.0,8.0,53,0.00,,,0.00,meteohub,2013-02-16 12:54:00,
2013-02-16 04:59:00,53.8,36.5,30.22,NE,54,3.0,8.0,52,0.00,,,0.00,meteohub,2013-02-16 12:59:00,
2013-02-16 05:04:00,53.4,36.7,30.22,NE,52,5.0,8.0,53,0.00,,,0.00,meteohub,2013-02-16 13:04:00,
2013-02-16 05:09:00,53.6,36.9,30.22,ENE,57,5.0,8.0,53,0.00,,,0.00,meteohub,2013-02-16 13:09:00,
2013-02-16 05:14:00,53.8,36.5,30.22,ENE,65,5.0,7.0,52,0.00,,,0.00,meteohub,2013-02-16 13:14:00,
2013-02-16 05:19:00,53.8,36.5,30.22,NE,46,6.0,10.0,52,0.00,,,0.00,meteohub,2013-02-16 13:19:00,
2013-02-16 05:25:00,54.0,36.7,30.22,NE,42,4.0,10.0,52,0.00,,,0.00,meteohub,2013-02-16 13:25:00,
2013-02-16 05:30:00,54.1,36.3,30.22,ENE,69,5.0,10.0,51,0.00,,,0.00,meteohub,2013-02-16 13:30:00,
2013-02-16 05:35:00,54.1,36.3,30.22,NE,50,7.0,9.0,51,0.00,,,0.00,meteohub,2013-02-16 13:35:00,
2013-02-16 05:39:00,54.1,36.9,30.22,NNE,24,3.0,9.0,52,0.00,,,0.00,meteohub,2013-02-16 13:39:00,
2013-02-16 05:45:00,54.1,36.0,30.22,NNE,30,6.0,9.0,50,0.00,,,0.00,meteohub,2013-02-16 13:45:00,
2013-02-16 05:50:00,54.3,36.1,30.22,NE,48,7.0,10.0,50,0.00,,,0.00,meteohub,2013-02-16 13:50:00,
2013-02-16 05:55:00,54.3,36.1,30.22,NE,38,7.0,10.0,50,0.00,,,0.00,meteohub,2013-02-16 13:55:00,
2013-02-16 06:00:00,54.7,36.3,30.22,NE,38,7.0,10.0,50,0.00,,,0.00,meteohub,2013-02-16 14:00:00,
2013-02-16 06:05:00,54.7,36.0,30.22,ENE,68,7.0,10.0,49,0.00,,,0.00,meteohub,2013-02-16 14:05:00,
2013-02-16 06:10:00,54.3,36.1,30.22,NNE,32,4.0,10.0,50,0.00,,,0.00,meteohub,2013-02-16 14:10:00,
2013-02-16 06:15:00,54.1,35.4,30.22,NNE,30,7.0,10.0,49,0.00,,,0.00,meteohub,2013-02-16 14:15:00,
2013-02-16 06:20:00,54.1,35.4,30.22,NE,44,7.0,9.0,49,0.00,,,0.00,meteohub,2013-02-16 14:20:00,
2013-02-16 06:25:00,54.1,35.4,30.21,NE,46,7.0,9.0,49,0.00,,,0.00,meteohub,2013-02-16 14:25:00,
2013-02-16 06:30:00,54.1,34.9,30.21,NE,56,4.0,9.0,48,0.00,,,0.00,meteohub,2013-02-16 14:30:00,
2013-02-16 06:35:00,54.0,35.2,30.21,NNW,347,4.0,9.0,49,0.00,,,0.00,meteohub,2013-02-16 14:35:00,
2013-02-16 06:40:00,53.8,35.1,30.21,NE,48,6.0,8.0,49,0.00,,,0.00,meteohub,2013-02-16 14:40:00,
2013-02-16 06:45:00,54.0,34.7,30.21,NE,37,2.0,9.0,48,0.00,,,0.00,meteohub,2013-02-16 14:45:00,
2013-02-16 06:50:00,53.4,34.7,30.21,NE,44,4.0,9.0,49,0.00,,,0.00,meteohub,2013-02-16 14:50:00,
2013-02-16 06:55:00,53.4,35.2,30.21,NE,36,6.0,9.0,50,0.00,,,0.00,meteohub,2013-02-16 14:55:00,
2013-02-16 07:00:00,53.4,35.2,30.21,NE,56,4.0,8.0,50,0.00,,,0.00,meteohub,2013-02-16 15:00:00,
2013-02-16 07:05:00,53.1,35.4,30.22,NNE,32,4.0,7.0,51,0.00,,,0.00,meteohub,2013-02-16 15:05:00,
2013-02-16 07:10:00,52.9,35.2,30.22,NNE,32,3.0,7.0,51,0.00,,,0.00,meteohub,2013-02-16 15:10:00,
2013-02-16 07:15:00,52.9,35.2,30.22,NE,36,5.0,8.0,51,0.00,,,0.00,meteohub,2013-02-16 15:15:00,
2013-02-16 07:20:00,53.1,34.9,30.22,NE,56,5.0,8.0,50,0.00,,,0.00,meteohub,2013-02-16 15:20:00,
2013-02-16 07:25:00,53.2,34.5,30.22,ENE,57,4.0,9.0,49,0.00,,,0.00,meteohub,2013-02-16 15:25:00,
2013-02-16 07:30:00,53.2,35.6,30.22,NNE,32,4.0,9.0,51,0.00,,,0.00,meteohub,2013-02-16 15:30:00,
2013-02-16 07:35:00,53.1,34.9,30.22,NE,38,6.0,9.0,50,0.00,,,0.00,meteohub,2013-02-16 15:35:00,
2013-02-16 07:40:00,53.1,34.9,30.22,NE,36,5.0,8.0,50,0.00,,,0.00,meteohub,2013-02-16 15:40:00,
2013-02-16 07:45:00,53.2,35.1,30.22,NE,37,4.0,8.0,50,0.00,,,0.00,meteohub,2013-02-16 15:45:00,
2013-02-16 07:50:00,53.2,35.6,30.22,NNE,31,6.0,8.0,51,0.00,,,0.00,meteohub,2013-02-16 15:50:00,
2013-02-16 07:55:00,53.2,35.1,30.22,NE,45,4.0,7.0,50,0.00,,,0.00,meteohub,2013-02-16 15:55:00,
2013-02-16 08:00:00,53.4,35.2,30.22,NE,52,5.0,7.0,50,0.00,,,0.00,meteohub,2013-02-16 16:00:00,
2013-02-16 08:05:00,53.8,35.1,30.22,NE,47,5.0,7.0,49,0.00,,,0.00,meteohub,2013-02-16 16:05:00,
2013-02-16 08:10:00,54.1,35.4,30.22,NE,38,6.0,8.0,49,0.00,,,0.00,meteohub,2013-02-16 16:10:00,
2013-02-16 08:15:00,54.7,36.0,30.22,NE,42,4.0,8.0,49,0.00,,,0.00,meteohub,2013-02-16 16:15:00,
2013-02-16 08:20:00,54.9,36.1,30.22,ENE,60,4.0,9.0,49,0.00,,,0.00,meteohub,2013-02-16 16:20:00,
2013-02-16 08:25:00,54.9,36.1,30.22,NE,49,4.0,9.0,49,0.00,,,0.00,meteohub,2013-02-16 16:25:00,
2013-02-16 08:30:00,55.0,36.1,30.22,NE,53,3.0,9.0,49,0.00,,,0.00,meteohub,2013-02-16 16:30:00,
2013-02-16 08:35:00,55.0,35.8,30.22,ENE,57,3.0,7.0,48,0.00,,,0.00,meteohub,2013-02-16 16:35:00,
2013-02-16 08:40:00,55.2,35.4,30.22,NE,46,6.0,7.0,47,0.00,,,0.00,meteohub,2013-02-16 16:40:00,
2013-02-16 08:45:00,55.6,35.6,30.22,ENE,65,2.0,7.0,47,0.00,,,0.00,meteohub,2013-02-16 16:45:00,
2013-02-16 08:50:00,55.8,35.8,30.22,ENE,61,3.0,7.0,47,0.00,,,0.00,meteohub,2013-02-16 16:50:00,
2013-02-16 08:55:00,55.6,35.6,30.22,ENE,61,4.0,7.0,47,0.00,,,0.00,meteohub,2013-02-16 16:55:00,
2013-02-16 09:00:00,55.8,36.3,30.22,NE,46,3.0,7.0,48,0.00,,,0.00,meteohub,2013-02-16 17:00:00,
2013-02-16 09:05:00,55.9,36.0,30.22,ENE,65,4.0,8.0,47,0.00,,,0.00,meteohub,2013-02-16 17:05:00,
2013-02-16 09:10:00,56.3,35.8,30.22,ENE,64,3.0,8.0,46,0.00,,,0.00,meteohub,2013-02-16 17:10:00,
2013-02-16 09:15:00,56.7,36.7,30.22,ENE,62,2.0,8.0,47,0.00,,,0.00,meteohub,2013-02-16 17:15:00,
2013-02-16 09:20:00,56.7,36.7,30.22,ENE,59,2.0,7.0,47,0.00,,,0.00,meteohub,2013-02-16 17:20:00,
2013-02-16 09:25:00,56.8,36.3,30.22,NE,46,4.0,6.0,46,0.00,,,0.00,meteohub,2013-02-16 17:25:00,
2013-02-16 09:30:00,57.0,36.5,30.22,NNE,19,2.0,6.0,46,0.00,,,0.00,meteohub,2013-02-16 17:30:00,
2013-02-16 09:35:00,57.0,36.5,30.22,NE,50,3.0,6.0,46,0.00,,,0.00,meteohub,2013-02-16 17:35:00,
2013-02-16 09:40:00,57.0,36.0,30.22,NE,46,5.0,5.0,45,0.00,,,0.00,meteohub,2013-02-16 17:40:00,
2013-02-16 09:45:00,57.4,37.9,30.22,NE,51,4.0,6.0,48,0.00,,,0.00,meteohub,2013-02-16 17:45:00,
2013-02-16 09:50:00,57.4,36.7,30.22,NE,47,6.0,7.0,46,0.00,,,0.00,meteohub,2013-02-16 17:50:00,
2013-02-16 09:55:00,57.4,36.7,30.22,NE,38,7.0,7.0,46,0.00,,,0.00,meteohub,2013-02-16 17:55:00,
2013-02-16 10:00:00,57.4,36.7,30.22,ENE,71,4.0,8.0,46,0.00,,,0.00,meteohub,2013-02-16 18:00:00,
2013-02-16 10:05:00,57.6,36.9,30.22,ENE,57,4.0,8.0,46,0.00,,,0.00,meteohub,2013-02-16 18:05:00,
2013-02-16 10:10:00,57.6,37.9,30.22,ENE,63,5.0,8.0,48,0.00,,,0.00,meteohub,2013-02-16 18:10:00,
2013-02-16 10:15:00,57.7,37.6,30.22,NNE,30,5.0,8.0,47,0.00,,,0.00,meteohub,2013-02-16 18:15:00,
2013-02-16 10:20:00,58.3,38.7,30.22,NE,55,3.0,8.0,48,0.00,,,0.00,meteohub,2013-02-16 18:20:00,
2013-02-16 10:25:00,58.5,37.2,30.22,NE,53,4.0,8.0,45,0.00,,,0.00,meteohub,2013-02-16 18:25:00,
2013-02-16 10:30:00,58.6,37.4,30.22,ENE,70,5.0,8.0,45,0.00,,,0.00,meteohub,2013-02-16 18:30:00,
2013-02-16 10:35:00,58.6,37.4,30.22,ENE,63,4.0,7.0,45,0.00,,,0.00,meteohub,2013-02-16 18:35:00,
2013-02-16 10:40:00,58.8,35.8,30.22,ENE,62,3.0,7.0,42,0.00,,,0.00,meteohub,2013-02-16 18:40:00,
2013-02-16 10:45:00,59.2,37.2,30.21,ENE,60,5.0,7.0,44,0.00,,,0.00,meteohub,2013-02-16 18:45:00,
2013-02-16 10:50:00,59.4,36.3,30.22,NE,46,7.0,7.0,42,0.00,,,0.00,meteohub,2013-02-16 18:50:00,
2013-02-16 10:55:00,59.7,36.0,30.22,North,9,2.0,8.0,41,0.00,,,0.00,meteohub,2013-02-16 18:55:00,
2013-02-16 11:00:00,60.3,33.8,30.21,NE,37,2.0,8.0,37,0.00,,,0.00,meteohub,2013-02-16 19:00:00,
2013-02-16 11:05:00,61.2,35.4,30.21,North,350,6.0,8.0,38,0.00,,,0.00,meteohub,2013-02-16 19:05:00,
2013-02-16 11:10:00,61.9,34.0,30.21,ENE,62,4.0,8.0,35,0.00,,,0.00,meteohub,2013-02-16 19:10:00,
2013-02-16 11:15:00,62.1,34.2,30.21,NE,49,4.0,7.0,35,0.00,,,0.00,meteohub,2013-02-16 19:15:00,
2013-02-16 11:20:00,62.2,34.9,30.21,NNE,33,2.0,7.0,36,0.00,,,0.00,meteohub,2013-02-16 19:20:00,
2013-02-16 11:25:00,62.4,38.5,30.21,NE,51,3.0,7.0,41,0.00,,,0.00,meteohub,2013-02-16 19:25:00,
2013-02-16 11:30:00,62.2,38.3,30.21,NE,48,3.0,7.0,41,0.00,,,0.00,meteohub,2013-02-16 19:30:00,
2013-02-16 11:35:00,62.1,36.1,30.21,NE,41,4.0,7.0,38,0.00,,,0.00,meteohub,2013-02-16 19:35:00,
2013-02-16 11:40:00,62.2,38.8,30.20,ENE,59,2.0,6.0,42,0.00,,,0.00,meteohub,2013-02-16 19:40:00,
2013-02-16 11:45:00,62.6,38.5,30.20,ENE,59,1.0,6.0,41,0.00,,,0.00,meteohub,2013-02-16 19:45:00,
2013-02-16 11:50:00,63.1,37.8,30.20,ENE,59,2.0,6.0,39,0.00,,,0.00,meteohub,2013-02-16 19:50:00,
2013-02-16 11:55:00,63.1,37.8,30.19,NW,306,1.0,4.0,39,0.00,,,0.00,meteohub,2013-02-16 19:55:00,
2013-02-16 12:00:00,63.3,37.9,30.19,NW,306,0.0,4.0,39,0.00,,,0.00,meteohub,2013-02-16 20:00:00,
2013-02-16 12:05:00,63.1,37.0,30.19,NE,43,4.0,4.0,38,0.00,,,0.00,meteohub,2013-02-16 20:05:00,
2013-02-16 12:10:00,62.8,36.9,30.19,NE,45,1.0,5.0,38,0.00,,,0.00,meteohub,2013-02-16 20:10:00,
2013-02-16 12:15:00,63.0,37.0,30.18,NE,45,0.0,5.0,38,0.00,,,0.00,meteohub,2013-02-16 20:15:00,
2013-02-16 12:20:00,63.3,37.2,30.18,NE,45,2.0,5.0,38,0.00,,,0.00,meteohub,2013-02-16 20:20:00,
2013-02-16 12:25:00,63.3,38.7,30.18,NE,45,1.0,4.0,40,0.00,,,0.00,meteohub,2013-02-16 20:25:00,
2013-02-16 12:31:00,63.5,37.4,30.17,NE,45,2.0,4.0,38,0.00,,,0.00,meteohub,2013-02-16 20:31:00,
2013-02-16 12:36:00,63.1,39.7,30.17,NE,45,0.0,4.0,42,0.00,,,0.00,meteohub,2013-02-16 20:36:00,
2013-02-16 12:41:00,63.3,37.2,30.17,NE,45,3.0,4.0,38,0.00,,,0.00,meteohub,2013-02-16 20:41:00,
2013-02-16 12:46:00,63.7,37.6,30.17,NE,39,2.0,5.0,38,0.00,,,0.00,meteohub,2013-02-16 20:46:00,
2013-02-16 12:51:00,63.7,36.9,30.17,NE,39,3.0,5.0,37,0.00,,,0.00,meteohub,2013-02-16 20:51:00,
2013-02-16 12:56:00,63.3,36.7,30.17,NE,39,2.0,5.0,37,0.00,,,0.00,meteohub,2013-02-16 20:56:00,
2013-02-16 13:01:00,63.7,38.8,30.17,NE,39,2.0,5.0,40,0.00,,,0.00,meteohub,2013-02-16 21:01:00,
2013-02-16 13:06:00,63.9,40.3,30.16,South,188,1.0,4.0,42,0.00,,,0.00,meteohub,2013-02-16 21:06:00,
2013-02-16 13:11:00,64.0,41.7,30.16,SSW,193,4.0,6.0,44,0.00,,,0.00,meteohub,2013-02-16 21:11:00,
2013-02-16 13:16:00,64.2,41.2,30.16,SW,217,2.0,6.0,43,0.00,,,0.00,meteohub,2013-02-16 21:16:00,
2013-02-16 13:21:00,64.6,41.0,30.16,SSW,211,5.0,6.0,42,0.00,,,0.00,meteohub,2013-02-16 21:21:00,
2013-02-16 13:26:00,64.8,41.2,30.15,SW,227,3.0,6.0,42,0.00,,,0.00,meteohub,2013-02-16 21:26:00,
2013-02-16 13:31:00,64.9,41.4,30.15,SW,227,2.0,6.0,42,0.00,,,0.00,meteohub,2013-02-16 21:31:00,
2013-02-16 13:36:00,65.5,41.2,30.15,SW,236,3.0,6.0,41,0.00,,,0.00,meteohub,2013-02-16 21:36:00,
2013-02-16 13:41:00,65.8,40.8,30.15,SW,234,3.0,5.0,40,0.00,,,0.00,meteohub,2013-02-16 21:41:00,
2013-02-16 13:46:00,65.7,40.1,30.14,SSW,202,3.0,6.0,39,0.00,,,0.00,meteohub,2013-02-16 21:46:00,
2013-02-16 13:51:00,65.5,40.5,30.14,SSW,213,3.0,6.0,40,0.00,,,0.00,meteohub,2013-02-16 21:51:00,
2013-02-16 13:56:00,65.3,41.0,30.14,SSW,192,2.0,6.0,41,0.00,,,0.00,meteohub,2013-02-16 21:56:00,
2013-02-16 14:01:00,65.8,42.8,30.13,South,182,5.0,7.0,43,0.00,,,0.00,meteohub,2013-02-16 22:01:00,
2013-02-16 14:06:00,65.8,41.5,30.13,South,171,1.0,8.0,41,0.00,,,0.00,meteohub,2013-02-16 22:06:00,
2013-02-16 14:11:00,65.7,41.4,30.13,SSE,162,3.0,8.0,41,0.00,,,0.00,meteohub,2013-02-16 22:11:00,
2013-02-16 14:16:00,65.8,42.8,30.12,SE,131,0.0,8.0,43,0.00,,,0.00,meteohub,2013-02-16 22:16:00,
2013-02-16 14:21:00,65.7,41.9,30.12,WSW,240,2.0,8.0,42,0.00,,,0.00,meteohub,2013-02-16 22:21:00,
2013-02-16 14:26:00,65.5,41.7,30.12,South,190,5.0,8.0,42,0.00,,,0.00,meteohub,2013-02-16 22:26:00,
2013-02-16 14:31:00,65.5,42.4,30.12,WSW,244,4.0,8.0,43,0.00,,,0.00,meteohub,2013-02-16 22:31:00,
2013-02-16 14:36:00,65.5,43.0,30.12,SW,223,3.0,8.0,44,0.00,,,0.00,meteohub,2013-02-16 22:36:00,
2013-02-16 14:41:00,65.7,41.9,30.12,SSW,194,7.0,7.0,42,0.00,,,0.00,meteohub,2013-02-16 22:41:00,
2013-02-16 14:46:00,65.5,42.4,30.12,SW,225,2.0,7.0,43,0.00,,,0.00,meteohub,2013-02-16 22:46:00,
2013-02-16 14:51:00,65.3,41.5,30.12,SW,215,6.0,8.0,42,0.00,,,0.00,meteohub,2013-02-16 22:51:00,
2013-02-16 14:56:00,65.1,41.5,30.12,SSW,206,5.0,8.0,42,0.00,,,0.00,meteohub,2013-02-16 22:56:00,
2013-02-16 15:01:00,65.3,42.3,30.11,SW,227,5.0,8.0,43,0.00,,,0.00,meteohub,2013-02-16 23:01:00,
2013-02-16 15:06:00,64.9,41.9,30.11,SSW,203,6.0,7.0,43,0.00,,,0.00,meteohub,2013-02-16 23:06:00,
2013-02-16 15:11:00,64.8,42.3,30.11,South,182,5.0,8.0,44,0.00,,,0.00,meteohub,2013-02-16 23:11:00,
2013-02-16 15:16:00,64.8,42.3,30.11,SW,217,3.0,8.0,44,0.00,,,0.00,meteohub,2013-02-16 23:16:00,
2013-02-16 15:21:00,64.9,42.4,30.11,SSW,194,4.0,8.0,44,0.00,,,0.00,meteohub,2013-02-16 23:21:00,
2013-02-16 15:26:00,64.9,42.4,30.11,SW,214,4.0,8.0,44,0.00,,,0.00,meteohub,2013-02-16 23:26:00,
2013-02-16 15:31:00,65.1,43.3,30.11,SSW,195,5.0,8.0,45,0.00,,,0.00,meteohub,2013-02-16 23:31:00,
2013-02-16 15:36:00,64.9,42.4,30.11,SW,223,5.0,8.0,44,0.00,,,0.00,meteohub,2013-02-16 23:36:00,
2013-02-16 15:41:00,64.8,42.3,30.11,SW,226,5.0,8.0,44,0.00,,,0.00,meteohub,2013-02-16 23:41:00,
2013-02-16 15:46:00,64.6,42.3,30.11,WSW,240,4.0,7.0,44,0.00,,,0.00,meteohub,2013-02-16 23:46:00,
2013-02-16 15:51:00,64.6,42.3,30.11,SSW,205,5.0,7.0,44,0.00,,,0.00,meteohub,2013-02-16 23:51:00,
2013-02-16 15:56:00,64.4,42.1,30.11,SW,220,3.0,7.0,44,0.00,,,0.00,meteohub,2013-02-16 23:56:00,
2013-02-16 16:01:00,64.6,43.3,30.10,SSE,161,5.0,8.0,46,0.00,,,0.00,meteohub,2013-02-17 00:01:00,
2013-02-16 16:06:00,64.6,42.3,30.10,SSW,200,4.0,8.0,44,0.00,,,0.00,meteohub,2013-02-17 00:06:00,
2013-02-16 16:11:00,64.2,43.0,30.10,SW,223,3.0,9.0,46,0.00,,,0.00,meteohub,2013-02-17 00:11:00,
2013-02-16 16:16:00,64.2,43.0,30.10,SW,223,5.0,9.0,46,0.00,,,0.00,meteohub,2013-02-17 00:16:00,
2013-02-16 16:21:00,63.7,43.2,30.10,SSW,199,6.0,9.0,47,0.00,,,0.00,meteohub,2013-02-17 00:21:00,
2013-02-16 16:26:00,63.3,42.8,30.10,SW,227,4.0,8.0,47,0.00,,,0.00,meteohub,2013-02-17 00:26:00,
2013-02-16 16:31:00,63.1,42.6,30.10,SSW,192,3.0,9.0,47,0.00,,,0.00,meteohub,2013-02-17 00:31:00,
2013-02-16 16:36:00,63.0,43.5,30.09,SSW,208,4.0,9.0,49,0.00,,,0.00,meteohub,2013-02-17 00:36:00,
2013-02-16 16:41:00,62.6,43.7,30.09,SW,215,5.0,9.0,50,0.00,,,0.00,meteohub,2013-02-17 00:41:00,
2013-02-16 16:46:00,62.2,43.9,30.09,SSW,211,4.0,7.0,51,0.00,,,0.00,meteohub,2013-02-17 00:46:00,
2013-02-16 16:51:00,62.1,44.2,30.09,SSW,208,4.0,7.0,52,0.00,,,0.00,meteohub,2013-02-17 00:51:00,
2013-02-16 16:56:00,61.7,45.0,30.09,SSW,211,5.0,7.0,54,0.00,,,0.00,meteohub,2013-02-17 00:56:00,
2013-02-16 17:01:00,61.3,44.6,30.09,SSW,212,3.0,8.0,54,0.00,,,0.00,meteohub,2013-02-17 01:01:00,
2013-02-16 17:06:00,61.2,44.8,30.09,SSW,208,4.0,8.0,55,0.00,,,0.00,meteohub,2013-02-17 01:06:00,
2013-02-16 17:11:00,61.0,44.8,30.09,SSW,209,3.0,8.0,55,0.00,,,0.00,meteohub,2013-02-17 01:11:00,
2013-02-16 17:16:00,60.6,45.3,30.09,SSW,211,6.0,6.0,57,0.00,,,0.00,meteohub,2013-02-17 01:16:00,
2013-02-16 17:21:00,60.3,45.0,30.09,SSW,209,4.0,7.0,57,0.00,,,0.00,meteohub,2013-02-17 01:21:00,
2013-02-16 17:26:00,60.1,45.3,30.09,SW,215,3.0,7.0,58,0.00,,,0.00,meteohub,2013-02-17 01:26:00,
2013-02-16 17:32:00,59.5,45.1,30.09,SSW,203,4.0,7.0,59,0.00,,,0.00,meteohub,2013-02-17 01:32:00,
2013-02-16 17:37:00,59.5,45.1,30.09,SSW,197,3.0,6.0,59,0.00,,,0.00,meteohub,2013-02-17 01:37:00,
2013-02-16 17:42:00,59.5,45.1,30.09,SSW,196,2.0,6.0,59,0.00,,,0.00,meteohub,2013-02-17 01:42:00,
2013-02-16 17:47:00,59.4,45.5,30.09,SSW,196,3.0,5.0,60,0.00,,,0.00,meteohub,2013-02-17 01:47:00,
2013-02-16 17:52:00,59.0,45.1,30.08,SSW,196,2.0,5.0,60,0.00,,,0.00,meteohub,2013-02-17 01:52:00,
2013-02-16 17:57:00,58.6,45.3,30.08,SSW,196,3.0,4.0,61,0.00,,,0.00,meteohub,2013-02-17 01:57:00,
2013-02-16 18:02:00,58.1,44.8,30.09,South,183,5.0,5.0,61,0.00,,,0.00,meteohub,2013-02-17 02:02:00,
2013-02-16 18:07:00,57.7,44.4,30.08,South,179,3.0,5.0,61,0.00,,,0.00,meteohub,2013-02-17 02:07:00,
2013-02-16 18:12:00,57.6,44.6,30.08,South,179,3.0,5.0,62,0.00,,,0.00,meteohub,2013-02-17 02:12:00,
2013-02-16 18:17:00,57.4,44.4,30.08,South,178,4.0,5.0,62,0.00,,,0.00,meteohub,2013-02-17 02:17:00,
2013-02-16 18:22:00,57.2,44.2,30.08,South,186,4.0,6.0,62,0.00,,,0.00,meteohub,2013-02-17 02:22:00,
2013-02-16 18:27:00,57.0,44.1,30.08,South,186,3.0,6.0,62,0.00,,,0.00,meteohub,2013-02-17 02:27:00,
2013-02-16 18:32:00,57.0,44.1,30.09,SSE,155,3.0,6.0,62,0.00,,,0.00,meteohub,2013-02-17 02:32:00,
2013-02-16 18:37:00,56.7,44.2,30.08,South,178,4.0,7.0,63,0.00,,,0.00,meteohub,2013-02-17 02:37:00,
2013-02-16 18:42:00,56.5,44.4,30.08,South,177,2.0,7.0,64,0.00,,,0.00,meteohub,2013-02-17 02:42:00,
2013-02-16 18:47:00,56.1,44.1,30.09,SSE,163,5.0,7.0,64,0.00,,,0.00,meteohub,2013-02-17 02:47:00,
2013-02-16 18:52:00,56.1,44.6,30.08,SSE,167,3.0,6.0,65,0.00,,,0.00,meteohub,2013-02-17 02:52:00,
2013-02-16 18:57:00,55.8,43.7,30.08,SSE,167,3.0,6.0,64,0.00,,,0.00,meteohub,2013-02-17 02:57:00,
2013-02-16 19:02:00,55.6,44.1,30.08,SSW,211,3.0,6.0,65,0.00,,,0.00,meteohub,2013-02-17 03:02:00,
2013-02-16 19:07:00,55.2,43.7,30.08,SSW,200,2.0,4.0,65,0.00,,,0.00,meteohub,2013-02-17 03:07:00,
2013-02-16 19:12:00,55.0,43.5,30.08,SSW,200,3.0,4.0,65,0.00,,,0.00,meteohub,2013-02-17 03:12:00,
2013-02-16 19:17:00,55.0,43.5,30.07,SSW,200,2.0,4.0,65,0.00,,,0.00,meteohub,2013-02-17 03:17:00,
2013-02-16 19:22:00,55.2,43.7,30.07,SSW,200,2.0,4.0,65,0.00,,,0.00,meteohub,2013-02-17 03:22:00,
2013-02-16 19:27:00,55.2,43.7,30.07,SSW,200,2.0,4.0,65,0.00,,,0.00,meteohub,2013-02-17 03:27:00,
2013-02-16 19:32:00,55.6,43.5,30.07,SSW,200,2.0,4.0,64,0.00,,,0.00,meteohub,2013-02-17 03:32:00,
2013-02-16 19:37:00,55.8,43.3,30.07,SSW,200,3.0,3.0,63,0.00,,,0.00,meteohub,2013-02-17 03:37:00,
2013-02-16 19:42:00,55.8,43.3,30.07,SSW,200,3.0,4.0,63,0.00,,,0.00,meteohub,2013-02-17 03:42:00,
2013-02-16 19:47:00,55.9,43.5,30.07,SSW,200,4.0,4.0,63,0.00,,,0.00,meteohub,2013-02-17 03:47:00,
2013-02-16 19:52:00,55.9,43.2,30.07,SSW,200,2.0,4.0,62,0.00,,,0.00,meteohub,2013-02-17 03:52:00,
2013-02-16 19:57:00,56.1,43.7,30.07,South,181,4.0,4.0,63,0.00,,,0.00,meteohub,2013-02-17 03:57:00,
2013-02-16 20:02:00,55.9,43.2,30.07,SSW,209,0.0,6.0,62,0.00,,,0.00,meteohub,2013-02-17 04:02:00,
2013-02-16 20:07:00,55.8,43.0,30.07,SSW,209,3.0,6.0,62,0.00,,,0.00,meteohub,2013-02-17 04:07:00,
2013-02-16 20:12:00,55.6,42.3,30.06,SSW,209,2.0,6.0,61,0.00,,,0.00,meteohub,2013-02-17 04:12:00,
2013-02-16 20:17:00,55.6,42.8,30.06,SSW,197,2.0,4.0,62,0.00,,,0.00,meteohub,2013-02-17 04:17:00,
2013-02-16 20:22:00,55.4,43.3,30.06,SSW,197,2.0,4.0,64,0.00,,,0.00,meteohub,2013-02-17 04:22:00,
2013-02-16 20:27:00,55.4,43.3,30.06,SSW,197,2.0,4.0,64,0.00,,,0.00,meteohub,2013-02-17 04:27:00,
2013-02-16 20:32:00,55.4,43.0,30.06,SSW,197,3.0,4.0,63,0.00,,,0.00,meteohub,2013-02-17 04:32:00,
2013-02-16 20:37:00,55.4,43.0,30.06,SSW,197,2.0,3.0,63,0.00,,,0.00,meteohub,2013-02-17 04:37:00,
2013-02-16 20:42:00,55.6,42.8,30.06,SSW,197,2.0,3.0,62,0.00,,,0.00,meteohub,2013-02-17 04:42:00,
2013-02-16 20:47:00,55.6,42.3,30.06,SSW,197,2.0,3.0,61,0.00,,,0.00,meteohub,2013-02-17 04:47:00,
2013-02-16 20:52:00,55.8,42.4,30.06,SSW,197,2.0,3.0,61,0.00,,,0.00,meteohub,2013-02-17 04:52:00,
2013-02-16 20:57:00,55.8,42.4,30.06,SSW,197,2.0,3.0,61,0.00,,,0.00,meteohub,2013-02-17 04:57:00,
2013-02-16 21:00:00,55.9,42.6,30.06,SSW,197,3.0,3.0,61,0.00,,,0.00,meteohub,2013-02-17 05:00:00,
2013-02-16 21:01:00,55.9,42.6,30.06,SSW,197,2.0,3.0,61,0.00,,,0.00,meteohub,2013-02-17 05:01:00,
2013-02-16 21:06:00,55.9,41.9,30.06,SSW,197,1.0,3.0,59,0.00,,,0.00,meteohub,2013-02-17 05:06:00,
2013-02-16 21:11:00,55.9,41.9,30.06,SSW,197,1.0,3.0,59,0.00,,,0.00,meteohub,2013-02-17 05:11:00,
2013-02-16 21:16:00,55.8,41.7,30.06,SSW,197,2.0,3.0,59,0.00,,,0.00,meteohub,2013-02-17 05:16:00,
2013-02-16 21:21:00,55.6,41.5,30.06,SSW,197,1.0,3.0,59,0.00,,,0.00,meteohub,2013-02-17 05:21:00,
2013-02-16 21:26:00,55.2,41.2,30.06,SW,214,2.0,3.0,59,0.00,,,0.00,meteohub,2013-02-17 05:26:00,
2013-02-16 21:31:00,55.0,41.4,30.06,SW,214,0.0,3.0,60,0.00,,,0.00,meteohub,2013-02-17 05:31:00,
2013-02-16 21:36:00,54.9,41.7,30.06,SW,214,2.0,3.0,61,0.00,,,0.00,meteohub,2013-02-17 05:36:00,
2013-02-16 21:41:00,54.7,42.3,30.06,WSW,240,1.0,4.0,63,0.00,,,0.00,meteohub,2013-02-17 05:41:00,
2013-02-16 21:46:00,54.1,41.4,30.06,SW,232,2.0,4.0,62,0.00,,,0.00,meteohub,2013-02-17 05:46:00,
2013-02-16 21:51:00,54.0,40.8,30.06,WSW,254,3.0,4.0,61,0.00,,,0.00,meteohub,2013-02-17 05:51:00,
2013-02-16 21:56:00,53.8,40.3,30.06,WSW,254,1.0,4.0,60,0.00,,,0.00,meteohub,2013-02-17 05:56:00,
2013-02-16 22:01:00,53.4,40.3,30.06,WSW,254,0.0,4.0,61,0.00,,,0.00,meteohub,2013-02-17 06:01:00,
2013-02-16 22:06:00,53.2,40.1,30.06,WSW,254,2.0,4.0,61,0.00,,,0.00,meteohub,2013-02-17 06:06:00,
2013-02-16 22:11:00,52.9,40.3,30.05,WSW,254,0.0,3.0,62,0.00,,,0.00,meteohub,2013-02-17 06:11:00,
2013-02-16 22:16:00,52.5,40.3,30.06,West,259,2.0,4.0,63,0.00,,,0.00,meteohub,2013-02-17 06:16:00,
2013-02-16 22:21:00,52.5,40.3,30.05,WSW,247,1.0,4.0,63,0.00,,,0.00,meteohub,2013-02-17 06:21:00,
2013-02-16 22:26:00,52.5,40.3,30.05,WSW,247,0.0,4.0,63,0.00,,,0.00,meteohub,2013-02-17 06:26:00,
2013-02-16 22:31:00,52.5,40.3,30.05,WSW,247,0.0,3.0,63,0.00,,,0.00,meteohub,2013-02-17 06:31:00,
2013-02-16 22:36:00,52.7,40.1,30.05,WSW,247,0.0,3.0,62,0.00,,,0.00,meteohub,2013-02-17 06:36:00,
2013-02-16 22:41:00,52.9,39.7,30.05,WSW,247,0.0,2.0,61,0.00,,,0.00,meteohub,2013-02-17 06:41:00,
2013-02-16 22:46:00,53.2,39.7,30.05,WSW,242,0.0,2.0,60,0.00,,,0.00,meteohub,2013-02-17 06:46:00,
2013-02-16 22:51:00,53.8,39.7,30.05,SSE,154,0.0,2.0,59,0.00,,,0.00,meteohub,2013-02-17 06:51:00,
2013-02-16 22:56:00,53.4,39.9,30.04,SSE,154,0.0,2.0,60,0.00,,,0.00,meteohub,2013-02-17 06:56:00,
2013-02-16 23:01:00,53.2,39.7,30.04,ENE,70,2.0,2.0,60,0.00,,,0.00,meteohub,2013-02-17 07:01:00,
2013-02-16 23:06:00,52.5,39.0,30.04,South,181,1.0,3.0,60,0.00,,,0.00,meteohub,2013-02-17 07:06:00,
2013-02-16 23:11:00,52.2,38.7,30.04,South,178,1.0,4.0,60,0.00,,,0.00,meteohub,2013-02-17 07:11:00,
2013-02-16 23:16:00,52.0,38.1,30.04,South,178,2.0,4.0,59,0.00,,,0.00,meteohub,2013-02-17 07:16:00,
2013-02-16 23:21:00,52.3,39.4,30.04,West,261,4.0,5.0,61,0.00,,,0.00,meteohub,2013-02-17 07:21:00,
2013-02-16 23:26:00,52.2,39.6,30.04,SW,236,2.0,5.0,62,0.00,,,0.00,meteohub,2013-02-17 07:26:00,
2013-02-16 23:31:00,51.8,39.2,30.04,SW,236,0.0,5.0,62,0.00,,,0.00,meteohub,2013-02-17 07:31:00,
2013-02-16 23:36:00,51.6,39.4,30.04,SW,236,0.0,5.0,63,0.00,,,0.00,meteohub,2013-02-17 07:36:00,
2013-02-16 23:41:00,51.3,39.0,30.04,SW,236,0.0,3.0,63,0.00,,,0.00,meteohub,2013-02-17 07:41:00,
2013-02-16 23:46:00,50.9,38.8,30.04,SW,236,1.0,2.0,63,0.00,,,0.00,meteohub,2013-02-17 07:46:00,
2013-02-16 23:51:00,50.7,38.7,30.04,SW,236,1.0,1.0,63,0.00,,,0.00,meteohub,2013-02-17 07:51:00,
2013-02-16 23:56:00,50.7,39.0,30.04,SW,236,0.0,2.0,64,0.00,,,0.00,meteohub,2013-02-17 07:56:00,